Content
SEND FEEDBACK

Daily
Averages
Monthly
Summary
Iran

MASHHAD, IRAN


Home > Middle East > Iran
Elevation: 3214 feet     Latitude: 36 16N     Longitude: 059 38E

WEATHER
 
SELECT A DAY
Number of Records: 201,147;   Date Range: 2/9/98 - 9/22/14
 
SHARE

PRINT THIS DATA

[ ← Previous Day ]
WEATHER ALMANAC - JULY 4, 2014
[ Next Day → ]
[ °C ]   °F
Weather ElementAverageHighLow
Temperature79.7 °F89.6 °F (1:55 pm)66 °F (4:30 am)
Dewpoint29.8 °F33.8 °F (1:55 am)26.6 °F (4:20 pm)
Humidity16.4 %30 % (4:00 am)5 % (4:30 pm)
Barometer29.88 in29.92 in (12:55 am)29.65 in (4:30 pm)
Wind Speed9.8 mph18.4 mph (12:50 pm)
Weather ElementAverage
Visibility9.5 mi
Wind DirectionSE (137.1 °)

Weather ElementTotal
Precipitation---
Cooling Degree Days12.8 (Base 65)
Growing Degree Days27.8 (Base 50)
Averaged from 69 records on July 4, 2014
WEATHER CONDITIONS BREAKOUT
WIND DIRECTION BREAKOUT
WEATHER BY HOUR - JULY 4, 2014
[ °C ]   °F
Local TimeTemperatureDewpointHumidityBarometerVisibilityWind DirectionWind SpeedGust SpeedPrecipitationEventsConditions
12:55 AM69.8 °F32.0 °F25 %29.92 inSouth (180°)4.6 mphClear
1:00 AM69.8 °F32.0 °F25 %29.92 inSouth (180°)4.6 mphClear
1:30 AM70.0 °F32.0 °F14 %29.73 in7.0 miSouth (170°)4.5 mph
1:30 AM69.8 °F32.0 °F25 %29.92 inSouth (170°)4.6 mphClear
1:55 AM69.8 °F33.8 °F27 %29.92 inWest (270°)4.6 mphClear
2:00 AM69.8 °F33.8 °F27 %29.92 inWest (270°)4.6 mphClear
2:30 AM68.0 °F33.8 °F28 %29.92 inCalmClear
2:55 AM68.0 °F32.0 °F26 %29.92 inWest (280°)4.6 mphClear
3:00 AM68.0 °F32.0 °F26 %29.92 inWest (280°)4.6 mphClear
3:30 AM68.0 °F33.8 °F28 %29.92 inCalmClear
4:00 AM66.2 °F33.8 °F30 %29.92 inESE (120°)4.6 mphClear
4:20 AM66.2 °F33.8 °F30 %29.92 inNNE (30°)4.6 mphClear
4:30 AM66.0 °F33.0 °F19 %29.72 in9.0 miNNE (30°)4.5 mph
4:58 AM66.2 °F32.0 °F28 %29.92 inCalmClear
5:30 AM66.2 °F33.8 °F30 %29.92 inSSW (200°)4.6 mphClear
5:57 AM68.0 °F33.8 °F28 %29.92 inSSE (160°)4.6 mphClear
6:30 AM69.8 °F32.0 °F25 %29.92 inSouth (180°)4.6 mphClear
6:58 AM73.4 °F32.0 °F22 %29.92 inWest (280°)6.9 mphClear
7:30 AM76.0 °F30.0 °F10 %29.74 in9.0 miNW (320°)8.9 mph
7:30 AM75.2 °F30.2 °F19 %29.92 inNW (320°)9.2 mphClear
7:55 AM78.8 °F28.4 °F16 %29.92 inNNW (330°)11.5 mphClear
8:00 AM78.8 °F28.4 °F16 %29.92 inNNW (330°)11.5 mphClear
8:30 AM78.8 °F28.4 °F16 %29.92 inNNW (330°)11.5 mphClear
8:55 AM80.6 °F28.4 °F15 %29.92 inNW (320°)6.9 mphClear
9:30 AM82.4 °F28.4 °F14 %29.92 inSSW (200°)4.6 mphClear
9:55 AM82.4 °F28.4 °F14 %29.92 inNE (50°)9.2 mphClear
10:00 AM82.4 °F28.4 °F14 %29.92 inNE (50°)9.2 mphClear
10:30 AM83.0 °F29.0 °F7 %29.73 in12.0 miNE (40°)4.5 mphClear
10:30 AM84.2 °F30.2 °F14 %29.92 inNE (40°)4.6 mphClear
10:50 AM84.2 °F30.2 °F14 %29.92 inNNW (330°)9.2 mphClear
11:00 AM84.2 °F30.2 °F14 %29.92 inNNW (330°)9.2 mphClear
11:30 AM86.0 °F28.4 °F12 %29.92 inSouth (170°)6.9 mphClear
11:55 AM87.8 °F28.4 °F12 %29.92 inNE (50°)16.1 mphClear
12:30 PM87.8 °F30.2 °F13 %29.89 inENE (60°)9.2 mphClear
12:50 PM87.8 °F28.4 °F12 %29.89 inNNE (30°)18.4 mphClear
1:00 PM87.8 °F28.4 °F12 %29.89 inNNE (30°)18.4 mphClear
1:20 PM87.8 °F28.4 °F12 %29.89 inEast (80°)18.4 mphClear
1:30 PM88.0 °F29.0 °F6 %29.69 in12.0 miEast (80°)17.9 mphClear
1:30 PM87.8 °F28.4 °F12 %29.89 inEast (80°)18.4 mphClear
1:55 PM89.6 °F28.4 °F11 %29.89 inNE (40°)16.1 mphClear
2:20 PM89.6 °F28.4 °F11 %29.89 inEast (100°)13.8 mphClear
2:55 PM89.6 °F28.4 °F11 %29.89 inEast (80°)11.5 mphClear
3:00 PM89.6 °F28.4 °F11 %29.89 inEast (80°)11.5 mphClear
3:30 PM89.6 °F28.4 °F11 %29.86 inENE (70°)11.5 mphClear
3:55 PM89.6 °F28.4 °F11 %29.86 inENE (60°)9.2 mphClear
4:20 PM87.8 °F26.6 °F11 %29.86 inEast (80°)16.1 mphClear
4:30 PM88.0 °F27.0 °F5 %29.65 in9.0 miEast (80°)15.7 mphClear
4:30 PM87.8 °F26.6 °F11 %29.86 inEast (80°)16.1 mphClear
5:00 PM87.8 °F26.6 °F11 %29.86 inENE (70°)16.1 mphClear
5:20 PM87.8 °F30.2 °F13 %29.86 inENE (60°)18.4 mphClear
5:30 PM87.8 °F30.2 °F13 %29.86 inENE (60°)18.4 mphClear
5:55 PM87.8 °F28.4 °F12 %29.86 inENE (60°)16.1 mphClear
6:00 PM87.8 °F28.4 °F12 %29.86 inENE (60°)16.1 mphClear
6:20 PM86.0 °F28.4 °F12 %29.86 inENE (60°)18.4 mphClear
6:30 PM86.0 °F28.4 °F12 %29.86 inENE (60°)18.4 mphClear
6:55 PM84.2 °F26.6 °F12 %29.86 inENE (60°)16.1 mphClear
7:30 PM84.0 °F28.0 °F6 %29.67 in9.0 miENE (70°)15.7 mphClear
7:30 PM84.2 °F28.4 °F13 %29.86 inENE (70°)16.1 mphClear
8:00 PM80.6 °F28.4 °F15 %29.89 inENE (60°)13.8 mphClear
8:30 PM78.8 °F28.4 °F16 %29.89 inENE (60°)11.5 mphClear
9:00 PM78.8 °F28.4 °F16 %29.89 inENE (60°)6.9 mphClear
9:20 PM77.0 °F30.2 °F18 %29.92 inSSW (200°)6.9 mphClear
9:30 PM77.0 °F30.2 °F18 %29.92 inSSW (200°)6.9 mphClear
9:55 PM77.0 °F28.4 °F17 %29.92 inSSW (200°)4.6 mphClear
10:20 PM77.0 °F30.2 °F18 %29.92 inSouth (190°)6.9 mphClear
10:30 PM76.0 °F30.0 °F10 %29.73 in9.0 miSouth (190°)6.7 mph
10:30 PM77.0 °F30.2 °F18 %29.92 inSouth (190°)6.9 mphClear
11:00 PM75.2 °F30.2 °F19 %29.92 inSSW (210°)4.6 mphClear
11:20 PM75.2 °F28.4 °F18 %29.92 inSW (230°)6.9 mphClear
Hourly data recorded from OIMM, located miles away from Mashhad, Iran







STORIES FROM OUR PARTNERS